Location: Delia
(51.6321°N, 112.3740°W)
Time: 20:30:24
(UTC+00:00)

Envisat - Pass Details

Date: 10 December 2021
Orbit: 764 x 766 km, 98.2° (Epoch: 26 January)

Event Time Altitude Azimuth Distance (km) Brightness Sun altitude
Rises 11:47:48 0° 21° (NNE) 3,247 6.5 -32.3°
Reaches altitude 10° 11:50:22 10° 31° (NNE) 2,315 5.8 -31.9°
Maximum altitude 11:54:56 32° 94° (E) 1,292 4.6 -31.2°
Drops below altitude 10° 11:59:27 10° 158° (SSE) 2,298 5.7 -30.5°
Sets 12:01:58 0° 168° (SSE) 3,219 6.4 -30.2°
